Preview of NWS' New Version of Forecast
This preview is not operational and should not be used for support decisions.

Regional Weather Roundup (RWR)

Issued by National Weather Service (NWS)

                            
000
ASUS45 KCYS 181210
RWRWY 

WYOMING REGIONAL WEATHER ROUNDUP
NATIONAL WEATHER SERVICE CHEYENNE WY
600 AM MDT TUE JUN 18 2019

NOTE:  "FAIR" INDICATES FEW OR NO CLOUDS BELOW 12,000 FEET
WITH NO SIGNIFICANT WEATHER AND/OR OBSTRUCTIONS TO VISIBILITY.

WYZ001-181300-
YELLOWSTONE NATIONAL PARK
  
CITY           SKY/WX    TMP DP  RH WIND       PRES   REMARKS
LK YELLOWSTONE NOT AVBL                                               
W YELLOWSTONE  NOT AVBL                                               

$$
WYZ002>013-054>058-071-098>099-181300-
NORTHERN WYOMING
  
CITY           SKY/WX    TMP DP  RH WIND       PRES   REMARKS
JACKSON        CLOUDY    40  39  97 NE3       30.20R                  
CODY           CLOUDY    54  47  77 SW6       30.09S                  
GREYBULL       FAIR      57  51  80 SE3       30.03S                  
6HR MIN TEMP:  57; 6HR MAX TEMP:  60;                                

WORLAND        CLOUDY    54  53  97 CALM      30.04S                  
6HR MIN TEMP:  52; 6HR MAX TEMP:  58;                                

SHERIDAN       FAIR      50  47  89 NW3       30.02R                  
6HR MIN TEMP:  46; 6HR MAX TEMP:  52;                                

BUFFALO        FAIR      51  45  79 W3        30.05S                  
6HR MIN TEMP:  48; 6HR MAX TEMP:  55;                                

GILLETTE       FAIR      53  52  96 CALM      30.05R                  
6HR MIN TEMP:  52; 6HR MAX TEMP:  56;                                

NEWCASTLE      FAIR      52  46  82 E8        30.09S                  

$$
WYZ014>020-022>026-101>103-181300-
CENTRAL WYOMING
  
CITY           SKY/WX    TMP DP  RH WIND       PRES   REMARKS
BIG PINEY      FAIR      38  37  97 N7        30.21R WCI  33          
6HR MIN TEMP:  38; 6HR MAX TEMP:  51;                                

PINEDALE       CLOUDY    43  41  93 W5        30.21S                  
DUBOIS         FAIR      39  36  87 W9        30.18F WCI  33          
LANDER         FAIR      53  46  77 W6        30.10R                  
6HR MIN TEMP:  49; 6HR MAX TEMP:  56;                                

RIVERTON       FAIR      52  50  93 NW5       30.11R                  
6HR MIN TEMP:  50; 6HR MAX TEMP:  54;                                

CASPER         FAIR      50  50 100 SW5       30.09S                  
6HR MIN TEMP:  49; 6HR MAX TEMP:  56;                                

DOUGLAS        CLOUDY    54  53  97 CALM      30.09S                  
6HR MIN TEMP:  53; 6HR MAX TEMP:  57; 6HR PCP:  0.48;                


$$
WYZ021-027>030-104>119-181300-
SOUTHERN WYOMING
  
CITY           SKY/WX    TMP DP  RH WIND       PRES   REMARKS
EVANSTON       FAIR      46  43  89 S7        30.21R                  
6HR MIN TEMP:  45; 6HR MAX TEMP:  51;                                

KEMMERER       FAIR      41  37  87 N6        30.21S                  
FORT BRIDGER   SUNNY     48  43  81 W8        30.23R                  
ROCK SPRINGS   CLOUDY    48  46  93 SW3       30.17R                  
6HR MIN TEMP:  46; 6HR MAX TEMP:  53;                                

DIXON          CLOUDY    50  47  87 MISG      30.20R                  
RAWLINS        CLOUDY    51  48  89 W5        30.16S                  
6HR MIN TEMP:  49; 6HR MAX TEMP:  51;                                

SARATOGA       CLOUDY    48  48 100 CALM      30.18S                  
LARAMIE        FAIR      48  45  89 S3        30.16S                  
6HR MIN TEMP:  48; 6HR MAX TEMP:  51; 6HR PCP: TRACE;                

CHEYENNE       CLOUDY    52  50  93 CALM      30.13R FOG              
TORRINGTON     FOG       53  53 100 SE3       30.06S VSB 1/4          
6HR MIN TEMP:  51; 6HR MAX TEMP:  58;                                

PINE BLUFFS    CLOUDY    54  54 100 CALM      30.10S                  

$$